Powrót do katalogu

BD-17

AktywnyNawigacjaGEO
NORAD 40549·PAYLOAD·🇨🇳 China

Wystrzelony Mar 30, 2015 z Xichang Satellite Launch Center

Loading…

TLE

ŚwieżeSource: Space-Track

Epoka: Sep 13, 2026, 01:51 UTC

1 40549U 15019A   26256.07752948 -.00000168  00000-0  00000-0 0  9997
2 40549  49.0267 294.3950 0038756 200.8292 340.5769  1.00289448 41955

Śledź BD-17 w czasie rzeczywistym z AllMySat

Download on the App Store